Regional Weather Roundup
Issued by NWS Upton, NY

Current Version | Previous Version | Graphics & Text | Print | Product List | Glossary Off
Versions: 1 2 3 4 5 6 7 8 9 10 11 12 13 14 15 16 17 18 19 20 21 22 23 24 25 26 27 28 29 30 31 32 33 34 35 36 37 38 39 40 41 42 43 44 45 46 47 48 49 50

000
ASUS41 KOKX 290208
RWROKX

REGIONAL WEATHER ROUNDUP
NATIONAL WEATHER SERVICE NEW YORK NY
1000 PM EDT SAT MAR 28 2015

NOTE: "FAIR" INDICATES FEW OR NO CLOUDS BELOW 12,000 FEET WITH NO
SIGNIFICANT WEATHER AND/OR OBSTRUCTIONS TO VISIBILITY.

NYZ071-072-176-178-NJZ106-104-290300-
NEW YORK CITY METRO AREA


CITY           SKY/WX    TMP DP  RH WIND       PRES   REMARKS
CENTRAL PARK   CLOUDY    30  16  56 VRB5G18   30.09R WCI  25
LAGUARDIA APRT CLOUDY    31  19  61 NW15      30.07R WCI  20
KENNEDY INTL   FLURRIES  32  20  61 NW17      30.08R WCI  21
NEWARK/LIBERTY MOCLDY    31  10  41 NW15G24   30.09R WCI  20
BRNX BOT. GARD   N/A    N/A N/A N/A NW10      30.09R
TETERBORO      CLOUDY    30  14  51 NW13G23   30.08R WCI  20
$$

NYZ177-179-078>081-290300-
LONG ISLAND NEW YORK

CITY           SKY/WX    TMP DP  RH WIND       PRES   REMARKS
FARMINGDALE    LGT SNOW  29  25  85 NW14      30.06R FOG     WCI  18
ISLIP          LGT SNOW  30  26  85 NW16      30.02R FOG     WCI  19
SHIRLEY        LGT SNOW  30  26  85 NW15G22   30.03R FOG     WCI  19
WESTHAMPTON    LGT SNOW  30  26  85 NW12      30.03R FOG     WCI  20
MONTAUK POINT    N/A     33  31  92 N8        30.00R WCI  26
$$

NYZ052-065-067-290300-
HUDSON VALLEY

CITY           SKY/WX    TMP DP  RH WIND       PRES   REMARKS
WHITE PLAINS   LGT SNOW  27  22  81 NW12      30.04R FOG     WCI  17
NEWBURGH       NOT AVBL
MONTGOMERY     CLOUDY    27  12  53 NW13G25   30.08R WCI  16
POUGHKEEPSIE   CLOUDY    29  16  58 VRB7      30.08R WCI  22
ALBANY         FLURRIES  27  12  53 NW14      30.11R WCI  16
$$

NJZ001-105-106-008-010-013-015-019>022-104-290300-
NEW JERSEY

CITY           SKY/WX    TMP DP  RH WIND       PRES   REMARKS
NEWARK/LIBERTY MOCLDY    31  10  41 NW15G24   30.09R WCI  20
TETERBORO      CLOUDY    30  14  51 NW13G23   30.08R WCI  20
CALDWELL       CLOUDY    29   9  43 NW12      30.09R WCI  19
MORRISTOWN     CLOUDY    28  12  50 N10G20    30.10R WCI  19
SOMERVILLE     CLOUDY    28   9  44 NW15G22   30.10R WCI  16
SUSSEX         CLOUDY    24  14  65 N9        30.10R WCI  14
ANDOVER          N/A     23  11  60 N10G21    30.10R WCI  12
TRENTON        PTCLDY    28   8  43 NW10      30.11R WCI  19
MILLVILLE      PTCLDY    30  20  66 NW13      30.13R WCI  20
ATLANTIC CITY  PTCLDY    29  13  51 NW9       30.11R WCI  20
WRIGHTSTOWN    CLOUDY    29  11  47 NW16      30.09R WCI  17
TOMS RIVER     CLOUDY    30  12  47 NW13G18   30.09R WCI  20
BELMAR         CLOUDY    30  10  43 NW16      30.07R WCI  19
$$

PAZ047>061-062-071-290300-
EASTERN PENNSYLVANIA

CITY           SKY/WX    TMP DP  RH WIND       PRES   REMARKS
PHILADELPHIA   MOCLDY    30  13  49 NW22G29   30.15R WCI  17
ALLENTOWN      MOCLDY    25   7  46 NW17G23   30.14R WCI  12
SCRANTON       CLOUDY    23   5  46 NW13G18   30.14R WCI  11
$$

CTZ002-004>006-009-010-012-RIZ004-006-007-MAZ004-011-015-290300-
SOUTHERN NEW ENGLAND
 IN CT

CITY           SKY/WX    TMP DP  RH WIND       PRES   REMARKS
BRADLEY INTL   CLOUDY    30  20  66 N10       30.02R WCI  21
HARTFORD       LGT SNOW  29  24  82 NW10      30.04R WCI  20
DANBURY        CLOUDY    27  17  66 N13G20    30.05R HAZE    WCI  16
WTRBRY/OXFORD  CLOUDY    27  18  69 NW10G17   30.02R WCI  17
BRIDGEPORT     LGT SNOW  30  25  81 NW8       30.03R WCI  22
MERIDEN        LGT SNOW  29  25  85 N9        30.03R FOG     WCI  20
NEW HAVEN      LGT SNOW  30  26  85 NW12      30.02R FOG     WCI  20
CHESTER        LGT SNOW  30  28  93 N14G20    29.99R WCI  20
GROTON         LGT SNOW  31  30  96 N9        29.99R VSB 1   WCI  23
WILLIMANTIC    LGT SNOW  30  26  85 NW6       30.01R FOG     WCI  24

 IN RI

CITY           SKY/WX    TMP DP  RH WIND       PRES   REMARKS
PROVIDENCE     LGT SNOW  32  30  92 N7        29.99R VSB 1   WCI  26
BLOCK ISLAND   CLOUDY    32  30  93 NE9       29.97R WCI  24
WESTERLY       LGT SNOW  33  31  92 N6        30.00R VSB 3/4 WCI  28

 IN MA

CITY           SKY/WX    TMP DP  RH WIND       PRES   REMARKS
BOSTON         CLOUDY    33  29  85 NW7       29.97R WCI  27
WORCESTER      CLOUDY    27  21  78 NW9       29.95R WCI  18
WESTFIELD      CLOUDY    30  16  56 N15       30.02R WCI  19
PROVINCETOWN   PTCLDY    36  27  69 NE5       29.96R WCI  32
NANTUCKET      CLOUDY    34  31  88 NE8       29.95R WCI  27
$$

ANZ330-335-338-340-345-350-353-355-290300-
COASTAL MARINE OBSERVATIONS


STATION/POSITION TIME  SKY/WX   TEMP    WIND        PRES    VSBY  WAVE
                                AIR SEA DIR/SP/G                  HT/PER
                 (UTC)          (F)     (DEG/KT/KT) (MB)    (MI)  (FT/S)
NY HARB ENTRANCE 0150            34 38  330/ 19/ 23 1017.1          4/10
4S FIRE IS       0103               36                N/A           3/11
20S FIRE ISLAND  0050               38              1016.0          5/11
23SW MTP         0150                                 N/A           5/11
HUDSON CANYON    NOT AVBL
EXECUTION ROCKS  NOT AVBL
WESTERN LI SOUND NOT AVBL
CENTRAL LI SOUND NOT AVBL
EASTERN LI SOUND NOT AVBL
ROBBINS REEF     0100            32     320/ 16/ 21 1016.3
$$


>>>>>>>>>>>>>>>>>>>>>>>>>>>> KEY <<<<<<<<<<<<<<<<<<<<<<<<<<<
>                                                          <
>     SKY/WX - SKY CONDITION/PRESENT WEATHER               <
>     TMP    - TEMPERATURE IN FAHRENHEIT                   <
>     DP     - DEWPOINT IN FAHRENHEIT                      <
>     RH     - RELATIVE HUMIDITY IN PERCENT                <
>     WIND   - DIRECTION AND SPEED IN MPH                  <
>     PRES   - MEAN SEA LEVEL PRESSURE IN INCHES OF HG     <
>     WCI    - WIND CHILL INDEX                            <
>     VSB    - VISIBILITY IN MILES                         <
>     HX     - HEAT INDEX                                  <
>     TC     - TEMPERATURE IN CELSIUS                      <
>     VRB    - VARIABLE WIND DIRECTION                     <
>                                                          <
>>>>>>>>>>>>>>>>>>>>>>>>>>>> KEY <<<<<<<<<<<<<<<<<<<<<<<<<<<




USA.gov is the U.S. government's official web portal to all federal, state and local government web resources and services.